sat.trackr.live / text

‹ back to catalog

STARLINK-34475

NORAD 64603 · 2025-137K

PAYLOAD ACTIVE UNKNOWN

§ Identity

Operator
Country
US
Launch date
2025-06-25
Launch site
AFETR
Launch vehicle
Mass (kg)
RCS (m²)

Purposes: comms

External: N2YO · Heavens-Above · Gunter

§ Orbital elements

Epoch: 2026-05-24T23:21:40.954752Z

Period
94.11 min
Inclination
53.1585°
Eccentricity
0.0000859
Mean motion
15.30205152 rev/d
Perigee alt
474.6 km
Apogee alt
475.8 km
Semi-major
6,853.3 km
B*
3.1923e-4
RAAN
340.9467°
Arg perigee
66.1501°
Mean anomaly
293.9590°
Rev number
5,241

§ Raw data

STARLINK-344751 64603U 25137K   26144.97339068  .00009109  00000+0  31923-3 0  99982 64603  53.1585 340.9467 0000859  66.1501 293.9590 15.30205152 52415

JSON: /api/v1/satellites/64603 · /tle

For live sub-satellite position, see the globe view (requires WebGL).

§ Visibility from observer

Set your observer location to see the next 7 days of passes ≥ 10°. The values pass through the URL so the page stays shareable.

No JS? Fill the form by hand. The geolocation button needs JavaScript.